{"data":{"norad_id":56053,"epoch":"2026-09-19T22:08:39.052608Z","epoch_age_seconds":68072,"freshness":"FRESH","line1":"1 56053U 23043H   26262.92267422  .00000153  00000+0  37184-3 0  9997","line2":"2 56053  87.8983 240.3343 0001774  75.2596 284.8731 13.15547924168858","mean_motion":13.15547924,"eccentricity":0.0001774,"inclination_deg":87.8983,"raan_deg":240.3343,"arg_perigee_deg":75.2596,"mean_anomaly_deg":284.8731,"bstar":0.00037184,"rev_number":16885,"period_min":109.46009443895,"perigee_km":1200.4284959829,"apogee_km":1203.1178481119,"semimajor_km":7579.9101720474,"source":"CELESTRAK","updated_at":"2026-09-20T09:00:44.787839Z"}}